SCP
-0 -0 -0 -0 -0 -0 -0 -0 -0 -0 -0 -0 -0 -0 -0 -0 0 0 0 0 0 0 0 0 -0 0 -0 -0 -0 0 0 0 0 0 0 0 0 0 0 0 0 0 0 0 0
-0 -0 -0 -0 -0 -0 -0 -0 -0 -0 -0 -0 -0 -0 -0 -0 0 0 0 0 0 0 0 0 0 0 0 0 0 0 0 0 0 0 0 0 0 0 0 0 0 0 0 0 0
-0 -0 -0 -0 -0 -0 -0 -0 -0 -0 -0 -0 -0 -0 -0 0 0 0 0 0 0 0 0 0 0 0 0 0 -0 0 0 0 0 0 0 0 0 0 0 0 0 0 0 0 0
-0 -0 -0 -0 -0 -0 -0 -0 -0 -0 -0 -0 -0 -0 -0 0 -0 0 -0 0 0 0 0 -0 -0 0 0 0 0 0 0 0 0 0 0 0 0 0 0 0 0 0 0 0 0
0 -0 -0 -0 -0 -0 -0 -0 -0 -0 -0 -0 -0 -0 0 -0 0 -0 0 0 0 0 -0 -0 -0 0 0 0 0 0 0 0 0 0 0 0 0 0 0 0 0 0 0 -0 0
0 0 0 -0 -0 -0 -0 -0 -0 -0 -0 -0 -0 -0 0 0 -0 -0 0 0 0 0 0 -0 0 0 0 -0 0 0 0 0 0 0 0 0 0 0 0 0 0 -0 -0 -0 -0
0 0 0 0 -0 -0 -0 -0 -0 -0 -0 -0 -0 0 0 0 -0 -0 -0 0 0 0 -0 0 -0 -0 0 0 0 0 0 0 0 0 0 0 0 0 0 0 -0 -0 -0 -0 -0
0 0 0 0 0 -0 -0 -0 -0 -0 -0 -0 0 0 -0 0 0 -0 -0 0 0 0 -0 -0 -0 -0 0 0 0 0 0 0 0 0 0 0 -0 0 -0 -0 -0 -0 -0 -0 -0
0 0 0 0 0 -0 -0 -0 0 -0 -0 -0 0 0 -0 -0 0 0 -0 -0 0 0 0 0 -0 0 -0 -0 -0 0 0 0 0 0 0 0 -0 0 -0 -0 -0 -0 -0 -0 -0
-0 0 0 0 -0 -0 -0 0 0 -0 -0 -0 -0 0 -0 -0 -0 -0 0 0 0 0 0 0 0 0 0 0 0 0 -0 0 0 0 0 0 -0 -0 -0 -0 -0 -0 -0 -0 -0
0 0 -0 -0 -0 -0 0 -0 -0 -0 -0 -0 -0 -0 -0 0 0 -0 0 -0 -0 -0 -0 -0 -0 -0 0 0 0 0 0 0 0 0 0 0 0 -0 -0 -0 -0 -0 -0 -0 -0
0 -0 -0 -0 -0 -0 -0 -0 -0 0 0 -0 -0 -0 -0 -0 -0 0 -0 0 0 -0 -0 0 -0 -0 0 0 0 0 -0 -0 0 0 0 0 -0 -0 0 -0 -0 -0 -0 -0 0
-0 -0 -0 -0 -0 0 -0 -0 0 0 -0 0 -0 -0 -0 -0 -0 -0 -0 -0 0 -0 -0 -0 -0 -0 -0 -0 -0 -0 -0 -0 -0 -0 0 0 0 0 0 0 0 -0 0 0 -0
-0 -0 -0 -0 -0 0 0 0 0 -0 0 0 0 -0 -0 -0 -0 -0 -0 -0 -0 -0 0 0 0 0 0 -0 -0 -0 -0 -0 -0 -0 -0 0 0 0 0 0 0 0 -0 -0 -0
-0 -0 -0 -0 -0 -0 -0 -0 -0 -0 0 0 0 -0 -0 -0 0 -0 -0 -0 0 0 0 0 0 0 0 0 0 0 -0 -0 -0 -0 -0 0 0 0 0 0 0 0 0 -0 -0
0 0 -0 0 0 0 -0 -0 0 0 -0 0 0 0 0 -0 -0 -0 -0 -0 0 0 0 0 0 0 0 0 0 0 0 0 0 0 0 0 0 0 0 0 0 0 0 0 0
0 0 0 0 0 0 0 0 -0 0 -0 0 0 0 0 0 0 0 0 0 0 0 0 0 0 0 0 0 0 0 0 0 0 0 0 0 0 0 0 0 0 0 0 0 0
0 0 0 0 0 0 0 0 0 0 -0 0 0 0 0 0 0 0 0 0 0 0 0 0 0 0 0 0 0 0 0 0 0 0 0 0 0 0 0 0 0 0 0 0 0
0 0 0 0 0 0 0 0 0 0 0 -0 0 0 0 0 0 0 0 0 0 0 0 0 0 0 0 0 0 0 0 0 0 0 0 0 0 0 0 0 0 0 0 0 0
0 0 0 0 0 0 0 0 0 0 0 0 0 0 0 0 0 0 0 0 0 0 0 0 0 0 0 0 0 0 0 0 0 0 0 0 0 0 0 0 0 0 0 0 -0
0 0 0 0 0 0 0 0 0 0 0 0 0 0 0 0 0 0 0 0 0 0 0 0 0 0 0 0 0 0 0 0 0 0 0 0 0 0 0 0 0 0 0 -0 -0
0 0 0 0 0 0 0 0 0 0 0 0 0 0 0 0 0 0 0 0 0 0 0 0 0 0 0 0 0 0 0 0 0 0 0 0 0 0 0 0 0 0 -0 -0 0
0 0 0 0 0 0 0 0 0 0 0 0 0 0 0 0 0 0 0 0 0 0 0 0 0 0 0 0 0 0 0 0 0 0 0 0 0 0 0 0 0 0 0 0 0
0 0 0 0 0 0 0 0 0 0 0 0 0 0 0 0 0 0 0 0 0 0 0 0 0 0 0 0 0 0 0 0 0 0 0 0 0 0 0 0 0 0 0 0 0
0 0 0 0 0 0 0 0 0 0 0 0 0 0 0 0 0 0 0 0 0 0 0 0 0 0 0 0 0 0 0 0 0 0 0 0 0 0 0 0 0 0 0 0 0
0 0 0 0 0 0 0 0 0 0 0 0 0 0 0 0 0 0 0 0 0 0 0 0 0 0 0 0 0 0 0 0 0 0 0 0 0 0 0 0 0 0 0 0 0
0 0 0 0 0 0 0 0 0 0 0 0 0 0 0 0 0 0 0 0 0 0 0 0 0 0 0 0 0 0 0 0 0 0 0 0 0 0 0 0 0 0 0 0 0
Wind_Speed_500mb
8 8 8 7 7 7 6 7 7 6 5 4 3 4 4 10 9 6 10 8 3 8 10 10 8 12 12 11 12 5 8 4 9 11 5 16 7 12 7 13 15 11 8 10 37
8 8 7 6 6 6 6 6 5 4 5 4 2 3 5 12 7 7 12 8 4 12 11 5 6 11 8 9 9 10 7 11 6 7 8 22 10 23 9 9 12 15 18 18 41
5 6 6 6 6 6 5 5 6 5 5 3 1 3 5 14 6 9 10 6 3 10 9 2 9 6 6 8 12 5 5 6 0 3 12 18 9 16 16 7 22 26 29 32 45
4 4 3 3 4 5 6 6 5 5 6 5 3 3 7 12 3 9 10 5 3 9 4 3 5 4 6 6 7 8 7 4 5 6 12 12 14 7 24 7 6 18 24 39 45
3 2 2 2 2 4 6 7 7 6 5 5 4 6 13 5 4 8 6 3 3 7 3 3 5 3 5 5 4 7 4 6 5 9 6 14 10 11 23 25 18 23 35 40 39
4 3 2 2 1 3 5 8 9 7 5 5 5 6 9 5 3 8 6 2 4 7 2 2 6 11 13 7 7 5 8 8 5 6 6 7 6 5 13 25 22 33 39 41 39
5 5 4 2 2 4 5 8 10 9 6 6 6 7 7 7 6 7 11 8 7 3 4 5 5 2 7 8 9 10 3 2 7 7 3 3 9 16 21 26 32 41 42 43 41
7 6 5 4 3 3 6 9 11 9 7 7 7 8 5 11 5 4 7 11 7 4 5 8 8 10 7 17 8 7 8 8 3 10 1 5 16 6 21 34 42 45 47 47 46
10 8 6 4 4 4 7 10 12 9 8 9 8 5 6 6 5 3 5 8 10 10 11 8 2 10 6 7 8 12 2 4 10 15 5 8 15 5 22 38 45 51 52 51 49
15 10 8 6 5 6 11 13 12 10 11 10 5 4 5 6 7 4 3 4 3 6 6 4 7 7 6 9 2 6 7 6 10 6 6 8 29 19 24 45 55 55 55 56 56
23 15 10 7 6 10 16 18 13 6 10 3 6 4 10 11 8 5 4 1 3 6 5 7 10 1 5 7 5 3 4 7 9 1 6 14 26 29 37 51 57 60 63 64 62
29 21 12 8 8 12 19 9 10 10 8 5 10 8 10 9 5 5 2 2 4 3 3 11 1 2 2 3 1 3 6 11 9 3 8 14 36 29 29 34 68 71 71 72 65
32 25 15 10 12 14 15 13 15 13 6 5 6 6 7 6 4 4 2 4 6 3 5 7 2 1 3 5 6 3 4 5 8 12 4 16 14 9 1 27 30 66 68 68 71
34 27 20 14 14 14 12 14 13 9 9 4 5 4 9 7 3 5 4 3 5 4 7 2 4 3 3 1 6 6 1 3 8 10 6 11 10 11 8 12 18 46 62 74 71
33 28 23 26 11 20 13 13 11 6 2 6 6 9 9 7 10 1 4 4 8 6 8 5 1 2 1 2 3 7 3 2 2 4 7 9 5 15 8 9 9 27 50 62 65
32 30 26 26 15 19 16 15 13 10 8 6 7 6 8 3 3 5 3 5 7 7 6 0 2 2 2 3 2 3 2 10 7 5 5 7 6 12 4 5 9 7 12 23 44
30 31 28 24 20 19 17 17 9 6 5 7 8 8 6 6 1 3 3 2 8 6 2 4 1 2 1 3 4 10 10 8 9 9 8 4 3 20 11 12 10 20 25 15 15
29 30 30 26 24 21 23 8 4 5 10 4 7 6 9 13 3 5 5 3 7 8 5 5 7 6 2 2 5 4 8 9 6 4 10 4 12 11 10 17 20 14 11 11 13
27 29 28 26 24 23 18 5 12 11 10 15 6 6 5 2 4 5 8 8 12 17 12 8 6 3 6 3 3 2 2 6 10 5 3 7 16 20 8 9 8 16 11 8 9
26 26 26 26 25 24 6 9 7 7 10 6 10 8 13 8 8 6 9 6 5 16 2 8 2 3 3 4 10 1 7 5 6 2 10 10 11 11 7 7 8 6 6 7 13
31 18 26 28 28 17 7 13 9 11 11 10 11 8 8 12 14 9 10 6 8 8 9 9 6 3 1 10 15 3 1 9 6 6 7 7 13 15 15 5 5 7 3 10 27
28 7 35 35 10 2 7 11 5 7 9 5 10 7 15 12 12 7 13 9 19 26 15 10 9 7 12 2 4 5 10 11 9 9 2 7 15 10 17 19 13 19 18 26 47
19 9 32 41 8 6 7 7 6 7 8 10 12 9 7 14 5 12 8 1 16 14 14 13 2 4 9 3 4 9 11 9 10 6 15 10 12 1 8 16 20 23 41 56 58
16 5 9 25 6 10 9 8 9 13 7 10 7 8 7 7 7 3 8 4 9 9 7 17 8 14 14 9 9 8 11 11 11 8 10 17 37 16 21 18 41 54 58 58 48
16 9 13 8 10 11 7 7 10 11 11 15 5 12 14 12 7 10 6 2 1 7 5 6 11 10 10 7 8 8 11 17 20 20 20 36 29 30 25 17 32 54 61 51 34
16 12 12 6 5 21 11 11 19 7 15 11 11 17 15 16 16 15 13 8 12 4 10 4 6 5 10 8 18 13 41 28 31 26 24 37 45 58 56 52 51 54 50 46 45
41 20 12 8 9 11 11 12 17 15 17 15 27 10 10 24 34 20 18 7 11 18 15 11 10 5 12 8 4 14 41 33 15 16 21 27 46 45 29 29 48 52 41 44 36
Wind_Direction_500mb
122 124 129 133 132 133 139 147 154 154 153 143 104 74 121 150 139 63 24 19 97 142 127 100 52 13 16 39 45 72 65 142 179 155 187 171 136 172 173 156 184 205 206 219 189
124 135 143 146 148 149 146 152 161 158 159 159 132 89 142 158 137 67 21 21 96 149 145 99 19 358 28 24 22 63 86 198 169 170 177 179 178 173 166 176 216 226 219 212 188
118 126 140 158 170 175 169 170 170 162 161 159 98 27 156 164 144 23 14 24 103 157 158 32 4 47 57 29 19 66 116 168 1 247 170 167 164 178 161 225 223 222 205 189 186
132 121 130 148 180 199 198 197 195 182 166 164 132 92 143 156 100 359 2 33 118 160 175 17 18 28 59 57 42 79 72 119 142 140 151 166 158 205 206 234 229 223 203 185 189
179 156 135 140 184 213 216 212 207 197 182 176 149 135 147 137 82 8 3 49 121 165 133 50 33 34 81 74 45 71 106 86 122 159 178 165 191 234 237 233 241 209 192 191 196
205 213 204 165 183 218 218 217 211 202 192 179 166 157 161 123 108 42 37 81 136 158 164 82 79 92 106 67 67 92 102 109 143 142 170 188 235 213 236 219 215 200 199 199 205
223 222 229 229 213 194 206 206 208 199 192 182 169 159 169 163 148 68 50 80 119 137 170 125 116 104 119 114 107 115 84 329 192 196 183 233 266 235 230 206 204 200 205 207 212
250 245 243 237 230 223 191 185 189 191 185 175 162 155 137 159 165 100 65 69 81 81 117 102 100 101 52 114 52 49 50 17 186 162 194 119 273 278 210 200 201 205 209 215 217
242 248 252 247 230 207 177 172 169 171 168 163 159 156 131 167 175 133 85 92 90 96 101 94 105 83 84 63 21 12 312 326 324 202 131 164 265 248 207 204 210 210 214 220 224
237 240 241 237 215 182 164 159 153 151 149 143 144 145 165 168 154 145 143 94 111 127 111 95 67 75 43 63 277 312 342 296 252 221 209 221 262 248 220 210 219 219 220 223 228
230 231 233 228 203 176 161 146 140 143 163 140 157 112 148 138 139 134 140 138 96 84 60 35 63 117 232 182 165 198 242 281 264 236 234 233 260 264 232 218 224 227 228 229 232
219 222 225 214 185 175 173 188 175 147 134 142 146 118 143 141 117 129 119 107 71 86 64 21 70 240 209 135 30 326 315 305 289 135 197 296 278 261 209 218 221 226 229 232 235
214 209 211 200 171 170 184 188 153 144 106 148 160 153 154 165 114 154 96 90 88 70 38 144 293 347 76 44 37 302 248 311 257 316 229 311 300 331 122 226 234 235 238 239 238
206 200 195 188 179 167 167 164 161 160 76 253 187 187 176 166 83 148 153 116 46 143 141 208 325 114 90 70 122 309 207 307 317 25 298 11 283 312 332 293 229 238 234 237 237
193 194 188 181 188 176 173 165 151 143 32 154 151 155 162 164 142 111 175 174 165 156 99 266 38 29 347 205 175 229 47 42 24 58 15 353 45 273 348 323 291 249 240 241 241
187 189 189 186 184 175 163 154 141 50 256 182 138 151 115 116 114 127 137 122 117 107 32 253 44 69 147 88 30 87 99 43 57 78 23 288 114 289 275 249 300 322 344 267 248
187 188 188 183 181 175 162 150 53 147 31 198 182 157 128 167 178 154 135 138 159 105 287 351 305 344 126 112 29 61 47 337 351 11 225 338 45 246 265 259 243 293 298 315 294
191 189 186 183 177 171 161 58 201 189 202 126 113 92 167 162 206 155 106 274 213 109 120 156 319 167 23 153 162 88 131 146 271 284 283 317 241 247 227 283 285 285 301 333 336
192 188 186 185 177 171 168 102 213 203 170 143 90 112 251 218 147 145 204 219 214 178 159 145 277 58 44 50 57 167 92 166 108 18 14 265 287 303 299 352 277 265 280 334 346
180 177 180 180 175 170 96 235 235 206 132 121 155 148 178 202 162 181 190 212 233 191 80 198 44 2 53 81 37 92 157 42 13 288 284 283 276 239 306 342 4 16 293 348 359
162 156 176 171 163 170 181 226 258 227 175 150 183 147 188 179 174 200 211 249 181 134 166 144 118 243 57 193 181 115 213 54 117 139 205 301 267 214 217 222 242 237 236 338 333
167 131 169 168 150 165 176 203 209 213 175 158 134 134 180 169 178 229 220 233 179 153 162 191 139 204 214 46 158 176 184 153 125 217 164 154 270 241 227 248 265 273 277 289 316
166 121 173 179 171 217 262 275 244 176 209 183 180 180 171 169 208 202 206 327 178 163 162 184 192 351 324 18 346 218 194 147 116 104 198 147 257 316 258 266 257 277 299 312 309
172 114 161 203 198 153 160 223 224 215 207 185 166 125 123 178 216 203 229 173 186 197 193 159 166 181 207 201 131 216 199 186 157 147 187 224 268 273 283 266 285 297 303 305 303
194 213 172 206 233 173 185 180 186 207 213 199 213 198 166 179 184 211 202 150 163 187 147 161 226 197 255 204 189 243 199 187 204 216 200 260 244 260 252 249 267 292 301 303 294
184 175 179 159 158 166 181 232 187 202 166 226 197 201 193 182 185 196 161 182 204 129 153 22 268 155 282 232 206 224 263 217 220 241 252 264 271 271 274 277 278 284 292 285 286
203 187 165 161 136 131 219 201 205 179 225 204 206 148 194 227 224 222 198 200 189 159 173 158 152 106 263 322 358 277 243 235 196 215 220 233 251 276 278 250 267 283 285 284 283
Wind_Speed_850mb
8 8 8 7 7 7 6 7 7 6 5 4 3 4 4 10 9 6 10 8 3 8 10 10 8 12 12 11 12 5 8 4 9 11 5 16 7 12 7 13 15 11 8 10 37
8 8 7 6 6 6 6 6 5 4 5 4 2 3 5 12 7 7 12 8 4 12 11 5 6 11 8 9 9 10 7 11 6 7 8 22 10 23 9 9 12 15 18 18 41
5 6 6 6 6 6 5 5 6 5 5 3 1 3 5 14 6 9 10 6 3 10 9 2 9 6 6 8 12 5 5 6 0 3 12 18 9 16 16 7 22 26 29 32 45
4 4 3 3 4 5 6 6 5 5 6 5 3 3 7 12 3 9 10 5 3 9 4 3 5 4 6 6 7 8 7 4 5 6 12 12 14 7 24 7 6 18 24 39 45
3 2 2 2 2 4 6 7 7 6 5 5 4 6 13 5 4 8 6 3 3 7 3 3 5 3 5 5 4 7 4 6 5 9 6 14 10 11 23 25 18 23 35 40 39
4 3 2 2 1 3 5 8 9 7 5 5 5 6 9 5 3 8 6 2 4 7 2 2 6 11 13 7 7 5 8 8 5 6 6 7 6 5 13 25 22 33 39 41 39
5 5 4 2 2 4 5 8 10 9 6 6 6 7 7 7 6 7 11 8 7 3 4 5 5 2 7 8 9 10 3 2 7 7 3 3 9 16 21 26 32 41 42 43 41
7 6 5 4 3 3 6 9 11 9 7 7 7 8 5 11 5 4 7 11 7 4 5 8 8 10 7 17 8 7 8 8 3 10 1 5 16 6 21 34 42 45 47 47 46
10 8 6 4 4 4 7 10 12 9 8 9 8 5 6 6 5 3 5 8 10 10 11 8 2 10 6 7 8 12 2 4 10 15 5 8 15 5 22 38 45 51 52 51 49
15 10 8 6 5 6 11 13 12 10 11 10 5 4 5 6 7 4 3 4 3 6 6 4 7 7 6 9 2 6 7 6 10 6 6 8 29 19 24 45 55 55 55 56 56
23 15 10 7 6 10 16 18 13 6 10 3 6 4 10 11 8 5 4 1 3 6 5 7 10 1 5 7 5 3 4 7 9 1 6 14 26 29 37 51 57 60 63 64 62
29 21 12 8 8 12 19 9 10 10 8 5 10 8 10 9 5 5 2 2 4 3 3 11 1 2 2 3 1 3 6 11 9 3 8 14 36 29 29 34 68 71 71 72 65
32 25 15 10 12 14 15 13 15 13 6 5 6 6 7 6 4 4 2 4 6 3 5 7 2 1 3 5 6 3 4 5 8 12 4 16 14 9 1 27 30 66 68 68 71
34 27 20 14 14 14 12 14 13 9 9 4 5 4 9 7 3 5 4 3 5 4 7 2 4 3 3 1 6 6 1 3 8 10 6 11 10 11 8 12 18 46 62 74 71
33 28 23 26 11 20 13 13 11 6 2 6 6 9 9 7 10 1 4 4 8 6 8 5 1 2 1 2 3 7 3 2 2 4 7 9 5 15 8 9 9 27 50 62 65
32 30 26 26 15 19 16 15 13 10 8 6 7 6 8 3 3 5 3 5 7 7 6 0 2 2 2 3 2 3 2 10 7 5 5 7 6 12 4 5 9 7 12 23 44
30 31 28 24 20 19 17 17 9 6 5 7 8 8 6 6 1 3 3 2 8 6 2 4 1 2 1 3 4 10 10 8 9 9 8 4 3 20 11 12 10 20 25 15 15
29 30 30 26 24 21 23 8 4 5 10 4 7 6 9 13 3 5 5 3 7 8 5 5 7 6 2 2 5 4 8 9 6 4 10 4 12 11 10 17 20 14 11 11 13
27 29 28 26 24 23 18 5 12 11 10 15 6 6 5 2 4 5 8 8 12 17 12 8 6 3 6 3 3 2 2 6 10 5 3 7 16 20 8 9 8 16 11 8 9
26 26 26 26 25 24 6 9 7 7 10 6 10 8 13 8 8 6 9 6 5 16 2 8 2 3 3 4 10 1 7 5 6 2 10 10 11 11 7 7 8 6 6 7 13
31 18 26 28 28 17 7 13 9 11 11 10 11 8 8 12 14 9 10 6 8 8 9 9 6 3 1 10 15 3 1 9 6 6 7 7 13 15 15 5 5 7 3 10 27
28 7 35 35 10 2 7 11 5 7 9 5 10 7 15 12 12 7 13 9 19 26 15 10 9 7 12 2 4 5 10 11 9 9 2 7 15 10 17 19 13 19 18 26 47
19 9 32 41 8 6 7 7 6 7 8 10 12 9 7 14 5 12 8 1 16 14 14 13 2 4 9 3 4 9 11 9 10 6 15 10 12 1 8 16 20 23 41 56 58
16 5 9 25 6 10 9 8 9 13 7 10 7 8 7 7 7 3 8 4 9 9 7 17 8 14 14 9 9 8 11 11 11 8 10 17 37 16 21 18 41 54 58 58 48
16 9 13 8 10 11 7 7 10 11 11 15 5 12 14 12 7 10 6 2 1 7 5 6 11 10 10 7 8 8 11 17 20 20 20 36 29 30 25 17 32 54 61 51 34
16 12 12 6 5 21 11 11 19 7 15 11 11 17 15 16 16 15 13 8 12 4 10 4 6 5 10 8 18 13 41 28 31 26 24 37 45 58 56 52 51 54 50 46 45
41 20 12 8 9 11 11 12 17 15 17 15 27 10 10 24 34 20 18 7 11 18 15 11 10 5 12 8 4 14 41 33 15 16 21 27 46 45 29 29 48 52 41 44 36
Wind_Direction_850mb
122 124 129 133 132 133 139 147 154 154 153 143 104 74 121 150 139 63 24 19 97 142 127 100 52 13 16 39 45 72 65 142 179 155 187 171 136 172 173 156 184 205 206 219 189
124 135 143 146 148 149 146 152 161 158 159 159 132 89 142 158 137 67 21 21 96 149 145 99 19 358 28 24 22 63 86 198 169 170 177 179 178 173 166 176 216 226 219 212 188
118 126 140 158 170 175 169 170 170 162 161 159 98 27 156 164 144 23 14 24 103 157 158 32 4 47 57 29 19 66 116 168 1 247 170 167 164 178 161 225 223 222 205 189 186
132 121 130 148 180 199 198 197 195 182 166 164 132 92 143 156 100 359 2 33 118 160 175 17 18 28 59 57 42 79 72 119 142 140 151 166 158 205 206 234 229 223 203 185 189
179 156 135 140 184 213 216 212 207 197 182 176 149 135 147 137 82 8 3 49 121 165 133 50 33 34 81 74 45 71 106 86 122 159 178 165 191 234 237 233 241 209 192 191 196
205 213 204 165 183 218 218 217 211 202 192 179 166 157 161 123 108 42 37 81 136 158 164 82 79 92 106 67 67 92 102 109 143 142 170 188 235 213 236 219 215 200 199 199 205
223 222 229 229 213 194 206 206 208 199 192 182 169 159 169 163 148 68 50 80 119 137 170 125 116 104 119 114 107 115 84 329 192 196 183 233 266 235 230 206 204 200 205 207 212
250 245 243 237 230 223 191 185 189 191 185 175 162 155 137 159 165 100 65 69 81 81 117 102 100 101 52 114 52 49 50 17 186 162 194 119 273 278 210 200 201 205 209 215 217
242 248 252 247 230 207 177 172 169 171 168 163 159 156 131 167 175 133 85 92 90 96 101 94 105 83 84 63 21 12 312 326 324 202 131 164 265 248 207 204 210 210 214 220 224
237 240 241 237 215 182 164 159 153 151 149 143 144 145 165 168 154 145 143 94 111 127 111 95 67 75 43 63 277 312 342 296 252 221 209 221 262 248 220 210 219 219 220 223 228
230 231 233 228 203 176 161 146 140 143 163 140 157 112 148 138 139 134 140 138 96 84 60 35 63 117 232 182 165 198 242 281 264 236 234 233 260 264 232 218 224 227 228 229 232
219 222 225 214 185 175 173 188 175 147 134 142 146 118 143 141 117 129 119 107 71 86 64 21 70 240 209 135 30 326 315 305 289 135 197 296 278 261 209 218 221 226 229 232 235
214 209 211 200 171 170 184 188 153 144 106 148 160 153 154 165 114 154 96 90 88 70 38 144 293 347 76 44 37 302 248 311 257 316 229 311 300 331 122 226 234 235 238 239 238
206 200 195 188 179 167 167 164 161 160 76 253 187 187 176 166 83 148 153 116 46 143 141 208 325 114 90 70 122 309 207 307 317 25 298 11 283 312 332 293 229 238 234 237 237
193 194 188 181 188 176 173 165 151 143 32 154 151 155 162 164 142 111 175 174 165 156 99 266 38 29 347 205 175 229 47 42 24 58 15 353 45 273 348 323 291 249 240 241 241
187 189 189 186 184 175 163 154 141 50 256 182 138 151 115 116 114 127 137 122 117 107 32 253 44 69 147 88 30 87 99 43 57 78 23 288 114 289 275 249 300 322 344 267 248
187 188 188 183 181 175 162 150 53 147 31 198 182 157 128 167 178 154 135 138 159 105 287 351 305 344 126 112 29 61 47 337 351 11 225 338 45 246 265 259 243 293 298 315 294
191 189 186 183 177 171 161 58 201 189 202 126 113 92 167 162 206 155 106 274 213 109 120 156 319 167 23 153 162 88 131 146 271 284 283 317 241 247 227 283 285 285 301 333 336
192 188 186 185 177 171 168 102 213 203 170 143 90 112 251 218 147 145 204 219 214 178 159 145 277 58 44 50 57 167 92 166 108 18 14 265 287 303 299 352 277 265 280 334 346
180 177 180 180 175 170 96 235 235 206 132 121 155 148 178 202 162 181 190 212 233 191 80 198 44 2 53 81 37 92 157 42 13 288 284 283 276 239 306 342 4 16 293 348 359
162 156 176 171 163 170 181 226 258 227 175 150 183 147 188 179 174 200 211 249 181 134 166 144 118 243 57 193 181 115 213 54 117 139 205 301 267 214 217 222 242 237 236 338 333
167 131 169 168 150 165 176 203 209 213 175 158 134 134 180 169 178 229 220 233 179 153 162 191 139 204 214 46 158 176 184 153 125 217 164 154 270 241 227 248 265 273 277 289 316
166 121 173 179 171 217 262 275 244 176 209 183 180 180 171 169 208 202 206 327 178 163 162 184 192 351 324 18 346 218 194 147 116 104 198 147 257 316 258 266 257 277 299 312 309
172 114 161 203 198 153 160 223 224 215 207 185 166 125 123 178 216 203 229 173 186 197 193 159 166 181 207 201 131 216 199 186 157 147 187 224 268 273 283 266 285 297 303 305 303
194 213 172 206 233 173 185 180 186 207 213 199 213 198 166 179 184 211 202 150 163 187 147 161 226 197 255 204 189 243 199 187 204 216 200 260 244 260 252 249 267 292 301 303 294
184 175 179 159 158 166 181 232 187 202 166 226 197 201 193 182 185 196 161 182 204 129 153 22 268 155 282 232 206 224 263 217 220 241 252 264 271 271 274 277 278 284 292 285 286
203 187 165 161 136 131 219 201 205 179 225 204 206 148 194 227 224 222 198 200 189 159 173 158 152 106 263 322 358 277 243 235 196 215 220 233 251 276 278 250 267 283 285 284 283